Regional Weather Roundup
Issued by NWS

Home | Current Version | Previous Version | Text Only | Print | Product List | Glossary Off
Versions: 1 2 3 4 5 6 7 8 9 10 11 12 13 14 15 16 17 18 19 20 21 22 23 24 25 26 27 28 29 30 31 32 33 34 35 36 37 38 39 40 41 42 43 44 45 46 47 48 49 50

127
ASUS43 KBIS 041702
RWRND

NORTH DAKOTA REGIONAL WEATHER ROUNDUP
NATIONAL WEATHER SERVICE BISMARCK ND
1100 AM CST SUN DEC 04 2016

NOTE: "FAIR" INDICATES FEW OR NO CLOUDS BELOW 12,000 FEET WITH NO
SIGNIFICANT WEATHER AND/OR OBSTRUCTIONS TO VISIBILITY.


NDZ001>003-009>011-017-041800-
NORTHWEST NORTH DAKOTA

CITY           SKY/WX    TMP DP  RH WIND       PRES   REMARKS
WILLISTON      SUNNY     26  21  81 SW6       29.74F WCI  19
MINOT          CLOUDY    32  27  81 W15       29.70S
MINOT AFB      CLOUDY    29  26  89 NW14      29.69S WCI  19
$$

NDZ018>021-031>035-040>046-041800-
SOUTHWEST NORTH DAKOTA

CITY           SKY/WX    TMP DP  RH WIND       PRES   REMARKS
BISMARCK       MOSUNNY   33  27  78 W13       29.77F
DICKINSON      SUNNY     25  17  72 W14       29.73F WCI  13
GARRISON         N/A     29  24  82 W12       29.72S WCI  19
HETTINGER ARPT SUNNY     28  19  69 W8        29.79F WCI  20
$$

NDZ004>008-012>016-024-026-027-054-041800-
NORTHEAST NORTH DAKOTA

CITY           SKY/WX    TMP DP  RH WIND       PRES   REMARKS
GRAND FORKS    CLOUDY    32  27  81 W17       29.69S
GRND FRKS AFB  CLOUDY    30  26  85 W10       29.69S
DEVILS LAKE    CLOUDY    27  26  96 W17       29.67S FOG     WCI  14
$$

NDZ022-023-025-028>030-036>039-047>053-041800-
SOUTHEAST NORTH DAKOTA

CITY           SKY/WX    TMP DP  RH WIND       PRES   REMARKS
FARGO          CLOUDY    33  31  92 S10       29.72S
JAMESTOWN      CLOUDY    34  28  79 W15       29.71F
$$





USA.gov is the U.S. government's official web portal to all federal, state and local government web resources and services.